sat.trackr.live / text

‹ back to catalog

STARLINK-36833

NORAD 68109 · 2026-044J

PAYLOAD ACTIVE UNKNOWN

§ Identity

Operator
Country
US
Launch date
2026-03-08
Launch site
AFWTR
Launch vehicle
Mass (kg)
RCS (m²)

Purposes: comms

External: N2YO · Heavens-Above · Gunter

§ Orbital elements

Epoch: 2026-05-24T20:21:52.283520Z

Period
93.91 min
Inclination
97.2841°
Eccentricity
0.0001408
Mean motion
15.33456157 rev/d
Perigee alt
464.5 km
Apogee alt
466.5 km
Semi-major
6,843.6 km
B*
5.0800e-4
RAAN
105.4661°
Arg perigee
82.6797°
Mean anomaly
277.4606°
Rev number
1,325

§ Raw data

STARLINK-368331 68109U 26044J   26144.84852180  .00016367  00000+0  50800-3 0  99912 68109  97.2841 105.4661 0001408  82.6797 277.4606 15.33456157 13255

JSON: /api/v1/satellites/68109 · /tle

For live sub-satellite position, see the globe view (requires WebGL).

§ Visibility from observer

Set your observer location to see the next 7 days of passes ≥ 10°. The values pass through the URL so the page stays shareable.

No JS? Fill the form by hand. The geolocation button needs JavaScript.